Starlink 5607

operational
NORAD ID: 55404 Int'l Des: 2023-014 Owner: SPXS Country: US Constellation: starlink
LEOCIRCULAR

Starlink 5607について

説明を読み込み中...

リアルタイム位置

3D地球を読み込み中...

次回通過

高度履歴

Altitude vs Time

uPlot chart will show altitude changes over time

軌道要素

1 55404U 23014P 25302.51335426 .00000208 00000-0 25194-4 0 9994
2 55404 70.0010 35.3163 0002970 267.0042 93.0778 14.98331772152409
Epoch: Oct 29, 2025 • Age: 15 hours

現在のステータス

高度 582.9 km
速度 7.57 km/s
衛星直下点 57.13°N, 16.18°W
打ち上げ日 Jan 31, 2023
運用期間 2.7 years
タイプ internet

技術仕様

分類 Payload
質量 305.00 kg
乾燥質量 290.00 kg
総質量 305.00 kg
長さ 0.20 m
直径 2.80 m
スパン 9.00 m
形状 Box + pan
製造者 SPXS
バスタイプ Starlink
フェーズステータス In Orbit
所有者/国 SPXS/US

大規模コンステレーション

Loading constellations...